星链-37733(STARLINK-37733)

导读

STARLINK-37733(NORAD编号69329)是美国太空探索技术公司(SpaceX)星链星座的V2 Mini通信卫星,属于Starlink Group 10-33批次,于北京时间2026年3月19日由猎鹰9号火箭从卡纳维拉尔角发射入轨,承担全球低轨互联网接入服务任务。该卫星初始部署于近地轨道,2026年SpaceX启动轨道调整计划后,已随同批次4400颗原550公里高度卫星降至约480公里轨道运行,可降低故障后脱轨时间,减少空间碎片风险,目前在轨运行状态稳定。

基本信息
目录编号:
69329
目录名称:
STARLINK-37733
国际标识:
2026-122A
轨道中心:
EARTH
卫星名称:
星链-37733
卫星全名:
星链-37733(STARLINK-37733)
卫星状态:
在轨 (已飞行93 天)
发射日期:
2026-06-03 UTC
国别 :
美国 (US)
星等 :
--
轨道信息
数据来源 国际轨道数据 AOE轨道数据
星历时间 2026-09-03T09:45:14+0800
1天前
查看轨道信息
2026-09-03T22:00:00+0800
15小时前
查看轨道信息
半长轴 6843.696km 6843.699km
偏心率 0.0001529 0.0002325
轨道倾角 97.283° 97.286°
近地点辐角 92.496° 112.706°
升交点赤经 274.868° 275.372°
平近点角 267.646° 182.426°
近地点 464.512km 463.97km
远地点 466.606km 467.154km
周期 93.907分钟 93.907分钟
每日圈数 15.334398 15.33439
详细信息
固有亮度:
5
最大亮度:
2.5
卫星平台:
Starlink V1.0
覆盖范围:
全球
运营商:
太空探索技术公司
运营商所在国:
美国
制造商(研发单位):
太空探索技术公司
制造商所在国:
美国
使用方式:
暂无
卫星简介
Starlink 计划是 SpaceX 推出的全球卫星互联网项目,通过发射低轨道卫星,为全球尤其是偏远地区提供高速、低延迟的互联网服务。自 2019 年起,Starlink 已部署数千颗卫星,旨在缩小全球数字鸿沟,推动互联网普及。该项目还为军事、航空等行业提供通信支持,带来广泛经济效益。
2D轨道图
3D轨道图
轨道高度分析图
轨道倾角分析图
轨道综合分析图
查看轨道综合分析图